GFSGL_con_mucape_057.txt.gz
CAPE
0 0 2 1 0 56 311 897 1179 2195 2682 2857 2171 2773 3615 3876 4114 4478 3683 3077 3307 3658 3210 3103 3253 3056 2252 1676 1728 1477 2184 1794 1328 1698 1287 887 568 888 778 649 798 639 79
0 0 0 0 0 78 243 556 1278 1891 2271 2323 2382 2445 2639 3598 4053 3898 3129 2348 3152 2867 3137 2906 2978 2387 2202 2314 2247 1726 1382 1400 968 1204 965 550 588 423 658 549 791 1057 660
1 11 132 169 170 138 290 578 1364 1421 1794 2081 2073 2282 2755 3165 3374 3505 2781 2601 2868 2872 3153 3057 2504 2417 2470 1807 1936 2017 1160 811 921 903 1136 381 508 140 82 398 674 814 186
42 27 77 298 325 237 415 591 937 1203 1400 1453 2407 2164 2541 2585 2712 2863 2956 3181 3142 3030 3051 2619 2274 2098 1888 1911 1918 1233 801 1142 1210 1000 910 481 86 39 15 170 311 824 214
95 60 86 307 223 58 118 450 782 1274 1089 1285 1685 2092 2860 2791 2314 3271 3257 3457 3490 3019 2843 2161 2139 1627 1261 1366 942 1679 1567 922 1160 1456 1246 560 236 20 119 10 360 363 173
230 236 212 182 147 300 688 757 1310 1658 1743 1841 2034 2138 2933 1978 1716 2133 3022 3162 2629 2419 2266 1982 1755 1062 900 593 380 490 715 1390 1150 1114 335 245 544 110 451 296 791 111 126
370 327 262 283 216 151 195 511 1180 2255 2637 2701 2636 2820 3252 3144 1922 2139 2168 2683 2615 2750 2289 2022 1513 1084 767 744 281 215 307 302 452 1039 925 890 674 420 205 381 196 444 706
370 428 248 305 263 164 611 587 1671 2614 3210 3578 3642 3437 3811 2192 1983 2057 1623 2183 2154 1986 1785 1721 1694 1404 831 620 563 268 310 442 316 365 864 721 450 473 804 642 639 584 612
372 368 322 302 311 374 519 1046 2157 2911 3345 3695 3724 3632 2946 1846 1496 1287 1250 1909 1709 1465 1274 1148 989 946 825 471 856 724 809 533 184 105 419 251 7 11 169 715 715 294 151
276 264 355 305 380 730 891 1806 2343 3032 3287 3160 2815 3279 2188 1523 1175 931 967 1179 1574 996 1106 1188 622 943 595 493 1083 1263 1051 945 371 313 48 10 3 20 19 638 1006 285 53
307 360 366 397 723 887 1840 2357 2555 2943 2379 2254 2489 2103 1614 1116 903 856 661 1053 921 946 830 1016 653 443 483 383 331 1457 891 939 157 750 468 119 143 152 45 323 857 97 86
294 266 271 469 787 1188 1950 2155 2408 1708 1959 2261 2261 1702 1363 957 872 514 504 512 575 883 741 727 252 198 174 2 323 310 163 190 995 1196 754 428 268 95 72 421 678 313 64
224 268 255 794 743 1313 1958 1218 1362 1587 1903 1739 1575 1416 936 552 526 469 284 247 293 1030 271 333 11 0 0 10 23 24 19 74 256 705 639 736 364 102 93 518 284 513 352
55 115 382 550 723 1075 1096 1239 1616 1746 1653 1370 1130 702 627 541 328 197 56 115 140 299 225 17 0 0 0 0 0 10 392 444 375 417 520 332 134 75 86 537 232 269 384
89 324 587 647 890 935 1027 1086 1378 1429 1028 1050 831 544 472 434 327 128 162 302 527 104 7 10 49 105 124 187 285 304 549 205 156 355 103 40 17 24 77 89 79 82 65
180 485 588 599 619 734 951 497 463 269 228 247 176 234 93 95 57 37 16 45 32 0 101 202 120 113 184 309 400 447 207 15 83 112 131 51 23 24 34 33 44 51 96
165 430 411 419 489 505 349 248 135 85 47 33 68 71 31 35 0 0 3 0 0 1 305 294 172 152 115 108 129 126 269 122 51 70 98 119 34 29 9 29 50 23 41
122 327 691 606 443 392 207 189 270 181 79 27 9 0 0 0 0 1 0 0 6 79 151 73 63 108 118 108 80 46 42 52 70 26 69 52 41 24 42 21 29 45 1
268 372 384 540 179 101 237 197 108 44 2 0 0 0 0 0 0 1 4 6 16 8 15 83 60 87 62 29 21 21 25 27 17 39 39 70 45 75 35 53 23 0 3
242 97 105 259 71 184 164 117 5 0 0 0 5 2 0 5 1 15 59 23 24 28 37 34 49 43 52 25 20 8 5 3 10 46 55 42 60 38 9 85 24 96 33
67 14 135 337 305 178 83 32 27 23 18 0 0 4 0 0 0 0 21 14 7 2 20 29 19 18 11 21 50 38 53 85 94 79 61 40 5 4 7 1 39 48 94
153 365 316 213 165 134 50 4 7 0 0 0 0 0 0 0 4 37 1 13 21 0 1 2 10 14 20 18 33 66 48 96 51 50 57 2 18 146 190 164 74 87 142
248 304 269 139 103 12 8 0 0 0 0 0 0 0 0 0 0 0 3 3 1 2 6 11 3 0 1 3 4 31 20 26 43 97 163 170 147 156 95 14 8 12 15
337 316 205 137 27 24 6 2 0 0 0 0 0 1 0 0 0 0 0 11 13 19 16 16 9 14 17 6 13 4 1 6 2 22 43 12 1 1 0 1 0 0 0
166 76 69 2 2 0 5 16 0 0 0 0 3 1 19 2 5 31 27 42 71 22 18 1 3 2 6 13 0 1 1 13 3 14 17 22 25 21 15 8 4 8 11
112 88 52 2 9 5 15 0 0 0 0 7 0 0 21 14 19 86 81 39 11 13 14 11 5 4 18 12 15 9 7 8 5 5 7 29 18 15 4 4 3 2 3

GFSGL_con_mucape_060.txt.gz
CAPE
0 32 141 59 134 209 199 200 223 701 989 1133 1083 1726 2643 3436 3661 3548 3648 3492 3400 2960 2639 2402 2841 2437 2766 2169 1958 1686 1320 1099 850 642 1028 889 632 695 717 588 604 484 205
23 41 88 200 359 351 101 150 637 531 1062 1115 1469 1606 1717 1456 2875 3525 3713 3550 3191 2667 2582 2604 2729 2765 2808 2348 2051 1745 1120 1235 1032 657 716 622 482 402 457 520 519 418 216
16 38 270 356 549 392 388 306 308 346 525 975 1425 1656 2107 2397 2885 3544 3759 3408 2623 2635 2783 2719 2706 2708 2484 2097 1906 1595 1030 1150 1017 764 906 494 307 142 14 225 394 278 71
0 24 78 642 688 744 707 380 174 133 265 843 1387 1684 2069 2003 2622 3482 3428 2992 2495 2898 2877 2908 2783 2403 2264 2064 1698 1599 1100 1146 1106 830 731 522 193 6 3 13 77 145 13
0 113 244 627 751 535 361 234 154 174 410 597 948 1501 1715 2179 2524 3031 2868 2764 3048 2902 3132 2986 2466 2073 1734 1818 1687 1383 1106 975 1012 689 502 461 159 1 0 2 109 29 50
118 122 157 232 218 356 291 438 244 140 294 888 1056 1243 1699 1941 2246 2585 2751 2944 3254 2981 2871 2452 1719 1384 1272 1167 927 739 1498 1121 783 663 461 330 205 0 102 14 53 66 15
10 88 156 142 242 303 267 210 301 610 375 648 1614 1571 1674 2443 2170 2036 2822 3098 2995 2790 2499 2336 1557 1342 1209 900 732 359 517 483 621 603 565 466 378 138 119 212 101 78 140
33 66 75 134 161 227 316 361 363 460 666 1246 1718 2085 2097 2743 2245 2206 2670 2730 2453 2309 2426 2091 1777 1332 983 847 538 443 411 281 203 300 837 648 496 407 276 347 166 169 118
95 79 47 43 213 305 255 516 569 527 523 1376 1843 2484 2383 1930 2137 2128 2323 2426 2134 2199 1935 1856 1492 1304 877 496 632 431 386 262 159 142 503 321 165 257 360 201 94 169 116
82 51 91 243 340 345 451 650 528 760 1147 1411 1761 2549 2201 2027 2065 2073 1910 1978 1801 1396 1437 995 910 1006 696 547 1028 638 665 284 157 47 136 147 4 0 13 324 132 74 35
33 34 100 347 448 407 612 850 766 817 1386 1131 1858 2094 1982 2019 1948 1764 1587 1401 1282 1160 889 1119 512 614 585 549 499 716 509 437 216 349 215 71 137 94 27 87 252 271 40
45 95 134 348 426 414 669 753 849 1299 1502 1599 1742 1867 1908 1611 1195 978 1073 803 766 661 860 733 540 385 453 389 367 326 346 266 401 278 62 95 70 112 58 207 227 169 137
78 108 188 370 233 352 526 651 1055 1367 1293 1569 1488 1581 1354 1102 894 750 635 544 591 497 499 491 262 152 240 90 169 199 168 136 98 86 123 169 215 162 98 160 175 263 263
66 163 227 307 372 405 411 532 730 1131 1202 1273 1323 977 845 861 790 648 601 324 414 200 189 120 42 0 11 0 6 21 79 69 69 107 106 147 113 71 11 210 141 181 141
66 126 166 102 104 72 179 315 701 1022 1179 1281 1208 961 753 849 777 597 466 278 233 176 180 85 0 0 2 0 2 136 262 106 111 113 121 79 71 43 105 106 96 49 48
50 23 35 53 113 155 158 245 445 591 980 966 788 763 694 527 354 276 138 330 203 172 81 0 26 51 43 145 301 357 264 125 192 135 105 27 17 24 9 24 27 52 36
28 12 52 70 112 157 239 119 163 451 598 646 636 489 328 157 33 7 77 105 34 0 226 137 89 173 149 86 299 251 22 91 29 82 85 33 20 24 10 15 13 12 16
71 24 31 200 174 54 133 157 393 386 222 110 181 123 30 13 0 7 29 13 0 68 230 135 154 146 127 108 67 60 109 70 40 19 33 16 30 30 12 9 23 49 25
72 197 259 240 146 263 334 271 176 154 108 61 17 17 15 1 0 0 0 1 58 101 96 55 87 78 60 50 48 45 30 21 23 21 35 63 54 38 11 7 21 11 0
137 66 184 359 231 337 112 58 73 35 6 0 0 0 0 0 1 4 4 1 0 8 14 27 63 51 32 18 15 13 10 16 13 21 58 87 73 25 9 6 31 31 19
172 133 122 122 107 48 28 0 0 0 0 0 0 0 0 2 7 13 11 4 13 31 26 10 25 5 14 37 9 3 0 2 48 87 41 11 19 36 46 33 17 37 57
188 156 47 14 5 17 18 0 0 0 0 0 0 3 1 1 12 8 0 8 27 5 11 2 12 14 15 17 40 19 80 81 52 57 15 3 13 34 56 48 21 11 17
175 175 126 64 0 0 0 1 0 0 1 2 2 0 0 0 0 14 7 6 7 17 10 11 17 19 17 19 9 4 9 25 45 71 69 104 62 21 12 11 2 1 3
236 176 7 0 4 2 3 2 0 0 0 0 0 0 0 9 21 7 14 2 3 1 0 7 5 5 1 0 9 4 3 24 34 31 22 1 0 0 0 0 0 0 0
129 15 1 2 1 0 0 0 0 0 0 0 0 0 0 2 3 7 3 9 7 26 14 4 2 22 1 15 6 1 0 0 6 0 0 0 0 0 1 0 0 2 14
13 5 1 1 0 0 5 0 0 0 0 1 0 0 0 0 0 7 17 27 33 13 6 0 2 4 5 6 4 0 0 0 0 0 0 0 2 1 0 0 0 0 0

GFSGL_con_mucape_063.txt.gz
CAPE
0 0 0 0 0 0 0 9 96 96 138 202 330 357 595 873 982 1230 778 441 850 1013 2127 2675 2908 2591 2226 2305 1752 1480 1169 1194 949 701 600 490 543 436 374 316 298 310 212
0 0 0 0 0 0 0 0 26 58 67 190 489 576 754 981 1640 1691 1644 1641 2262 2606 2836 2662 2515 2479 2412 1979 1911 1520 1252 997 761 689 450 380 358 240 205 162 149 196 107
0 0 0 0 2 0 0 0 0 0 0 26 66 117 412 921 1306 2602 2929 2893 2911 2693 2668 2448 2436 2280 2506 2133 1794 1395 1223 979 868 470 456 349 261 173 15 3 113 102 2
0 0 0 0 0 4 10 21 22 6 4 14 50 142 527 955 1255 1729 1995 2894 3208 2872 2783 2640 2294 2348 2275 2118 1921 1526 1078 790 471 489 406 281 120 39 0 0 0 55 0
0 0 0 0 0 92 202 304 306 230 79 8 0 17 137 598 1179 1500 2439 2904 3143 2540 2433 2438 2045 2118 2303 2206 1673 1262 814 484 581 607 310 135 123 6 0 0 2 5 5
0 0 0 0 0 0 3 59 50 53 31 2 0 97 228 394 867 1278 1773 2716 2707 2158 2234 2165 2134 2219 2078 1794 1326 960 656 443 412 277 174 141 99 16 0 0 0 5 5
0 0 0 0 0 17 2 36 93 70 73 28 0 1 122 761 966 1320 1592 2471 2037 2121 2121 2070 2114 1967 1540 1334 1040 757 679 486 344 308 159 155 127 19 0 0 1 8 3
0 0 0 0 0 0 0 19 19 33 15 76 183 210 121 323 1113 1485 1557 2007 1992 2061 2086 1790 1460 1445 1157 1017 985 621 422 373 287 343 195 200 97 73 0 30 2 16 59
0 0 0 0 0 0 0 23 19 59 99 58 122 213 717 890 1369 1436 1454 1612 1688 1819 2005 1574 1390 1310 1073 1005 935 498 414 171 119 284 352 241 194 109 14 91 58 32 40
0 0 0 0 12 1 0 15 18 11 97 63 144 339 537 860 1371 1449 1309 1624 1556 1653 1622 1381 1297 1153 861 572 396 192 171 83 67 11 148 132 100 143 98 2 19 31 20
0 0 3 0 7 37 15 51 23 43 209 325 434 388 603 803 1100 1347 1541 1508 1401 1441 1253 1133 973 697 631 475 403 314 270 104 146 94 25 34 2 0 17 29 87 43 29
0 1 3 14 6 7 29 59 215 336 367 285 421 390 653 975 1156 1486 1642 1428 1347 1111 784 574 532 656 541 440 449 484 349 243 151 31 6 11 36 17 0 3 39 36 48
0 1 1 0 8 4 8 140 117 163 401 365 393 658 666 767 1170 1417 1480 1165 855 787 695 474 332 330 382 429 356 288 257 241 146 69 34 23 22 32 11 13 19 29 50
0 19 8 0 0 0 28 128 190 239 403 457 482 549 566 772 1104 1080 1143 895 825 713 534 362 258 133 125 124 93 140 192 202 100 64 41 49 95 79 37 6 13 36 23
0 0 1 0 0 6 36 115 203 214 195 112 200 572 500 559 853 973 704 776 623 439 408 231 53 4 0 0 0 3 32 48 49 57 65 53 50 48 6 59 52 53 12
0 0 0 1 3 13 16 31 29 17 3 34 112 526 640 628 639 539 593 514 386 185 79 24 4 0 0 0 0 0 20 34 50 105 88 61 81 52 67 40 57 29 22
17 0 0 17 10 60 77 180 118 20 5 14 16 475 510 589 498 507 414 342 138 118 94 41 0 0 3 0 0 12 21 15 41 89 82 23 6 37 23 23 6 14 10
9 9 9 8 6 7 57 86 43 135 40 0 71 393 320 413 549 370 163 62 49 29 0 5 12 26 32 16 16 19 28 43 66 36 24 18 16 16 13 5 3 10 16
12 9 16 37 9 9 51 164 52 0 39 253 182 94 104 87 78 117 73 6 26 10 7 3 15 10 9 1 6 19 12 18 20 29 21 29 29 20 14 0 2 11 0
8 67 4 5 34 33 7 0 4 209 210 150 114 57 19 31 57 41 3 0 13 15 17 13 1 0 0 4 11 17 20 20 17 22 28 23 13 21 19 18 3 0 12
0 10 0 32 52 0 1 58 170 119 46 16 21 21 2 0 4 7 10 18 14 0 1 2 7 11 9 1 8 8 12 11 17 16 27 33 27 11 12 15 4 8 11
3 27 31 54 42 51 114 121 106 34 30 23 11 3 3 3 27 36 9 9 22 22 17 6 2 2 7 10 0 2 0 2 18 13 0 10 12 3 22 19 24 20 22
109 86 117 111 100 93 84 54 13 0 0 0 5 6 11 5 4 6 9 11 9 15 3 14 6 13 23 39 23 12 2 11 17 9 0 8 24 12 17 22 25 11 8
103 86 79 55 43 40 17 2 0 0 0 4 16 11 7 2 0 0 1 30 41 4 4 13 12 11 22 21 18 12 5 10 10 11 30 24 24 27 19 3 0 0 0
14 9 0 0 0 0 0 0 0 0 0 0 0 0 0 0 39 39 6 13 13 3 6 6 17 20 10 17 12 17 27 38 47 36 9 0 0 0 0 0 0 0 0
0 1 1 0 0 0 0 0 1 0 0 0 0 0 5 4 3 14 2 10 7 2 2 2 15 2 2 9 8 9 0 4 7 0 4 4 3 2 0 0 0 0 0

GFSGL_con_mucape_069.txt.gz
CAPE
0 0 0 0 0 0 0 0 0 0 0 0 0 0 84 241 356 500 453 389 291 350 267 274 196 255 57 153 394 655 736 998 713 796 869 559 591 504 286 250 300 274 195
0 0 0 0 0 0 0 0 0 0 0 0 0 3 70 144 244 442 509 529 480 530 549 482 312 338 507 784 1088 1242 1292 1464 1023 1364 778 794 602 390 193 251 248 115 23
0 0 0 0 0 0 0 0 0 0 0 0 0 0 0 68 227 393 608 735 745 713 663 654 807 954 938 1302 1314 1202 1340 1252 1076 913 905 818 610 361 198 185 116 0 0
0 0 0 0 0 0 0 0 0 0 0 0 0 0 0 0 0 3 43 118 325 530 1038 1280 1404 1555 1418 1527 1598 1504 1251 1076 1101 1018 922 777 596 348 167 130 0 0 1
2 0 0 0 0 0 0 0 0 0 0 0 0 0 0 0 0 0 1 5 71 364 657 1244 1810 2097 2121 1909 1650 1772 1331 1255 1077 904 802 633 496 218 155 16 0 0 1
0 0 0 0 0 0 0 0 0 0 0 0 0 0 0 0 0 0 7 5 4 63 171 620 1147 1674 2019 2121 2013 1905 1516 1279 926 782 679 625 292 224 177 0 0 0 7
0 0 0 0 0 0 0 0 0 0 0 0 0 0 0 0 0 0 0 0 0 6 56 270 639 1233 1529 1692 1523 1736 1413 1286 1021 921 650 433 329 290 78 12 0 0 0
0 0 0 0 0 0 0 0 0 0 0 0 0 0 0 0 0 0 0 0 0 10 13 112 489 983 1184 1286 1327 1087 1147 1092 1105 665 419 331 236 108 31 11 0 0 0
0 0 0 0 0 0 0 0 0 0 0 0 0 0 0 0 0 0 0 7 5 5 23 171 709 921 1038 1104 1069 939 1075 1009 816 482 200 128 40 17 0 0 0 0 0
0 0 0 0 0 0 0 0 0 0 0 0 0 0 0 0 0 0 0 45 55 42 111 508 770 984 902 900 892 1130 765 764 626 423 154 94 29 24 0 4 1 0 0
0 0 0 0 0 0 0 0 0 0 0 0 0 0 0 0 0 0 27 0 0 14 252 503 586 709 672 673 648 718 688 669 468 171 120 13 15 0 7 0 2 4 3
0 0 0 0 0 0 0 0 0 0 0 0 0 0 0 0 2 29 27 0 0 0 229 563 586 538 457 576 591 595 543 274 157 147 7 6 2 25 13 11 16 17 2
0 0 0 0 0 0 0 0 0 0 0 0 0 0 0 0 64 109 4 0 0 148 234 542 439 61 349 547 468 387 253 176 33 0 0 2 10 2 2 15 5 15 19
0 0 0 0 0 0 0 0 0 0 0 0 0 0 0 5 43 88 3 0 0 40 196 477 356 129 268 427 228 214 169 144 48 4 37 29 2 11 0 0 5 7 13
0 0 0 0 0 0 0 0 0 0 0 0 3 9 22 40 157 158 49 13 3 4 688 585 350 372 443 247 222 232 235 223 153 90 37 28 26 28 1 6 0 0 0
0 0 0 0 0 0 0 0 8 25 20 25 19 39 32 85 146 121 33 31 21 447 572 304 342 421 231 239 275 236 303 260 167 100 36 36 29 16 10 12 1 0 0
0 0 0 0 0 0 0 0 0 0 6 15 24 42 77 44 1 0 0 0 137 318 331 189 239 235 229 300 263 191 223 184 152 99 21 47 43 32 16 20 16 13 11
0 0 0 0 0 0 0 0 1 0 0 0 0 2 1 0 0 0 0 32 155 131 170 244 156 183 96 48 22 32 67 57 80 67 40 26 40 56 60 55 41 6 16
0 0 0 0 0 0 0 0 0 2 2 1 0 0 0 0 0 0 0 65 189 238 323 126 85 6 0 0 0 2 8 23 15 7 11 32 38 49 31 24 17 13 9
0 0 0 0 0 0 0 0 6 11 16 15 0 7 5 43 0 0 40 145 175 136 178 80 16 0 0 0 0 0 1 1 0 2 10 20 23 23 24 7 0 0 0
2 0 4 5 1 18 9 9 8 18 6 0 2 1 0 0 5 124 147 133 95 100 66 40 0 0 0 1 1 4 7 5 14 23 30 29 33 23 10 0 0 8 5
14 17 18 33 50 2 0 2 38 11 9 32 56 2 8 27 46 56 34 69 105 65 47 8 0 0 0 8 10 15 9 10 18 29 34 29 19 10 16 27 25 19 17
0 0 30 10 34 49 33 16 19 29 24 2 0 0 0 6 5 49 124 50 48 27 46 41 31 17 27 20 21 5 6 8 32 34 31 21 20 4 5 18 32 35 26
4 17 3 6 7 15 13 0 0 0 6 0 3 0 0 0 100 67 44 26 49 56 38 31 29 32 29 18 7 10 14 27 40 41 36 35 19 14 15 23 22 19 11
22 0 0 2 0 5 0 6 5 17 2 0 5 5 6 56 48 43 57 70 73 58 39 34 30 15 3 0 0 1 24 39 25 8 10 18 29 19 23 9 0 0 0
28 19 17 6 6 30 30 10 20 33 40 23 23 18 11 46 67 75 61 43 31 33 20 14 9 11 12 32 40 36 32 18 1 8 25 25 16 3 0 0 0 0 0

GFSGL_con_mucape_072.txt.gz
CAPE
4 0 0 0 0 0 0 0 0 0 0 0 0 0 0 28 135 214 212 246 294 317 296 276 262 266 237 110 80 53 65 94 128 350 535 588 621 485 483 286 166 117 118
0 0 0 0 0 0 0 0 0 0 0 0 0 0 0 7 18 105 230 442 429 411 450 425 386 322 310 294 190 178 208 301 374 522 686 691 574 560 425 252 136 111 38
0 0 0 0 0 0 0 0 0 0 0 0 0 0 0 0 6 69 259 437 496 574 621 678 663 669 670 526 303 295 581 621 433 590 626 469 557 554 409 204 97 59 0
0 0 0 0 0 0 0 0 0 0 0 0 0 0 0 0 0 0 2 49 130 262 402 670 841 1152 1117 988 857 871 665 579 588 548 489 461 570 552 378 230 103 4 0
0 0 0 0 0 0 0 0 0 0 0 0 0 0 0 0 0 0 0 4 3 14 97 287 704 1015 1334 1606 1656 1499 1133 758 705 513 456 404 550 403 315 197 63 0 0
0 0 0 0 0 0 0 0 0 0 0 0 0 0 0 0 0 0 0 0 0 4 12 10 99 264 630 974 1296 1693 1448 1150 798 459 401 538 392 369 301 132 11 0 0
1 0 0 0 0 0 0 0 0 0 0 0 0 0 0 0 0 0 0 0 0 0 0 0 36 172 268 758 1042 1141 1293 1175 1079 690 540 540 451 438 207 153 0 0 0
3 0 0 0 0 0 0 0 0 0 0 0 0 0 0 0 0 0 0 0 0 0 0 0 2 38 210 528 986 841 1080 1054 866 765 726 627 426 247 219 62 0 0 0
0 3 0 0 0 0 0 0 0 0 0 0 0 0 0 0 0 0 0 0 0 0 0 11 53 204 345 521 811 999 945 713 568 620 606 320 222 128 35 0 0 2 6
0 0 0 0 0 0 0 0 0 0 0 0 0 0 0 0 0 0 0 0 0 0 8 85 64 210 373 530 854 1225 628 484 397 517 337 153 128 21 9 0 0 1 0
0 0 0 0 0 0 0 0 0 0 0 0 0 0 0 0 0 0 0 0 0 2 9 74 284 274 290 616 762 727 482 348 436 448 238 182 83 14 0 0 0 3 0
0 0 0 0 0 0 0 0 0 0 0 0 0 0 0 0 0 0 0 0 0 17 9 34 289 274 513 762 621 558 530 423 285 210 245 176 45 4 0 0 0 0 2
0 0 0 0 0 0 0 0 0 0 0 0 0 0 0 0 0 0 0 0 0 30 0 0 93 244 569 566 437 343 340 328 251 207 169 95 0 0 0 0 0 5 19
0 0 0 0 0 0 0 0 0 0 0 0 0 0 0 0 0 0 0 0 29 9 0 0 23 45 375 274 244 223 303 247 161 139 81 0 1 0 0 1 7 12 38
0 0 0 0 0 0 0 0 0 0 0 0 0 0 0 0 0 0 0 24 27 0 0 0 3 110 258 107 222 242 224 145 104 62 21 38 12 0 1 3 11 37 40
0 0 0 0 0 0 0 0 0 0 0 0 0 0 3 2 0 2 22 152 126 34 0 2 93 646 287 105 99 149 115 113 101 112 88 59 16 9 20 19 40 28 1
0 0 0 0 0 0 0 0 0 0 0 0 0 0 0 0 0 0 78 57 0 17 1 123 369 493 159 80 7 59 95 158 168 158 112 31 35 40 20 37 28 12 1
0 0 0 0 0 0 0 0 0 0 0 0 0 0 0 0 0 17 32 0 0 1 41 263 372 528 118 30 79 150 201 234 186 112 82 38 31 46 45 25 31 27 17
0 0 0 0 0 0 0 0 0 0 5 0 0 0 0 0 15 16 2 0 3 1 58 274 241 152 144 100 197 258 241 164 196 102 82 77 47 26 34 24 32 12 8
0 0 0 0 0 0 0 0 0 7 7 0 0 0 0 0 0 0 0 0 7 18 164 147 175 238 119 175 146 112 103 87 70 79 61 43 43 51 42 24 12 3 0
0 0 0 0 0 0 0 0 0 7 5 2 26 27 8 0 0 0 0 1 28 142 129 146 216 102 36 37 51 37 18 18 31 27 27 18 23 27 18 4 0 0 0
0 0 6 0 0 0 12 1 7 20 29 10 2 3 49 124 12 0 2 4 152 140 136 158 78 28 31 20 6 4 2 20 21 26 22 27 25 20 10 4 6 15 9
0 0 7 8 0 3 7 8 7 14 10 13 4 1 0 1 9 5 27 77 189 64 47 85 17 14 4 16 6 9 17 14 22 35 39 24 19 15 22 29 32 43 37
17 42 24 34 43 34 3 16 7 10 6 19 10 11 67 102 40 52 39 44 80 91 46 1 1 0 30 34 41 28 19 27 40 48 30 24 21 11 21 33 45 44 17
19 3 3 31 8 60 28 21 27 10 5 0 0 4 9 41 43 23 25 84 53 23 0 2 28 45 55 47 21 6 6 32 36 21 23 36 20 22 28 28 23 5 0
29 28 14 21 16 11 3 5 2 12 22 11 10 0 19 0 1 23 69 38 35 38 47 43 36 38 39 15 10 36 39 36 32 23 21 24 30 33 31 7 0 0 0

GFSGL_con_mucape_075.txt.gz
CAPE
701 692 553 457 467 405 430 425 289 210 59 44 213 423 311 352 605 912 809 722 761 847 884 718 575 646 520 743 479 149 78 82 48 466 717 824 828 892 616 386 312 399 90
226 205 295 403 316 293 223 139 100 33 0 0 2 10 27 144 535 468 291 230 331 316 221 437 380 346 762 937 811 367 138 96 200 812 830 1023 615 582 471 485 518 189 155
71 12 43 104 196 329 288 186 88 44 0 0 0 46 61 69 203 308 251 192 189 143 126 228 349 503 697 893 1136 956 419 243 196 172 368 334 249 242 235 388 411 231 57
0 38 51 23 16 67 128 81 20 1 0 0 18 0 57 103 32 46 70 145 185 77 195 336 207 279 580 835 1093 1203 946 575 648 523 553 681 170 166 191 585 374 150 128
0 0 41 171 90 8 14 19 13 76 119 101 124 171 222 246 124 283 282 291 235 169 218 230 58 75 181 332 542 1250 1551 1068 768 864 701 521 144 142 195 541 484 387 148
5 3 1 0 9 36 43 105 229 301 322 294 335 308 343 11 0 0 0 0 0 0 152 173 104 25 50 113 186 272 489 1608 1854 1710 1275 858 566 241 297 457 548 179 278
0 0 0 2 0 0 6 47 211 459 509 400 244 26 0 0 0 0 0 0 0 0 0 72 98 0 132 196 126 363 652 590 548 1877 1903 852 701 597 451 511 374 375 241
0 0 0 0 1 2 0 27 240 336 249 102 0 0 0 0 0 0 0 0 0 0 0 12 192 322 297 151 363 846 1272 1165 700 787 939 968 720 993 557 539 452 347 136
0 0 0 5 0 0 0 4 122 59 36 6 0 0 0 0 0 0 0 0 0 0 0 0 133 348 206 172 189 772 1123 1052 748 572 456 512 440 320 273 248 269 240 187
0 0 0 0 4 0 0 0 0 0 0 0 0 0 0 0 0 0 0 0 0 0 0 5 42 113 107 14 0 496 1217 1048 620 449 466 417 235 118 87 416 363 283 224
0 0 0 0 0 0 6 0 0 0 0 0 0 0 0 0 0 0 0 0 0 0 0 0 2 134 90 0 20 456 1146 1120 543 656 365 224 106 92 85 251 398 317 221
0 0 0 0 0 0 0 1 0 0 0 0 0 0 0 0 0 0 0 0 0 0 0 1 194 156 83 110 365 732 860 709 636 382 285 153 97 74 232 310 352 323 309
0 0 0 0 0 0 0 0 0 0 0 0 0 0 0 0 0 0 0 0 0 0 0 0 9 13 0 3 349 796 662 535 528 468 240 151 149 282 319 375 369 382 375
0 0 0 0 0 0 0 0 0 0 0 0 0 0 0 0 0 0 0 0 0 0 0 0 0 0 0 0 350 644 517 462 566 671 402 301 294 258 367 300 301 382 437
0 0 0 0 0 0 0 0 0 0 0 0 0 0 0 0 0 0 0 0 0 0 15 16 2 6 2 2 162 466 375 346 360 342 362 288 275 377 190 362 359 340 425
0 0 0 0 0 0 0 0 0 0 0 0 0 0 0 0 0 0 0 0 0 3 23 100 3 13 5 25 145 352 301 308 353 356 461 314 293 344 194 211 156 288 320
0 0 0 0 0 0 0 0 0 0 0 0 0 0 0 0 0 0 0 0 0 28 107 177 9 8 88 155 163 277 276 206 288 395 386 373 384 241 131 121 210 143 192
0 1 0 0 0 0 0 0 0 0 0 0 0 0 0 0 0 0 0 0 1 63 81 27 65 66 190 393 388 228 210 171 256 295 530 432 369 258 116 190 211 188 221
0 0 0 0 0 0 0 0 0 0 0 36 37 0 0 0 0 0 0 0 77 152 9 4 56 310 207 516 395 257 136 202 486 515 467 428 211 56 142 243 155 41 9
0 0 0 0 0 0 0 0 6 52 46 40 43 29 12 0 0 0 0 0 8 41 16 9 62 163 435 304 120 48 205 254 227 272 408 257 112 77 36 25 28 23 52
0 0 0 0 0 0 0 0 0 0 60 26 22 10 2 0 1 2 6 5 2 0 7 75 163 351 192 182 219 354 278 162 317 240 62 93 422 26 95 82 107 131 134
0 0 0 0 0 0 0 0 0 7 3 17 7 6 1 2 8 8 2 1 0 2 99 170 247 178 227 350 458 515 562 491 523 319 422 391 307 73 22 70 161 188 124
2 0 0 0 0 0 0 28 1 3 25 46 13 22 1 12 58 18 9 4 16 119 113 138 136 200 357 396 445 455 406 428 418 348 252 145 75 98 156 102 98 54 55
8 15 2 4 9 33 34 18 1 2 18 55 53 27 42 12 1 8 15 27 57 147 144 137 101 227 312 297 209 246 318 295 263 170 65 168 69 29 95 55 18 27 32
1 24 14 21 34 0 5 16 13 25 20 28 34 7 15 64 19 23 75 90 85 97 80 134 234 202 121 64 105 56 6 17 12 15 25 26 20 24 19 24 38 33 22
38 3 0 0 11 20 13 4 6 0 10 14 0 0 2 64 52 41 56 58 48 65 77 62 51 43 20 19 12 1 11 17 25 36 25 24 18 6 11 30 31 17 0

GFSGL_con_mucape_078.txt.gz
CAPE
922 2051 3149 3564 3522 3012 2515 1966 1693 1859 1549 1502 1678 1989 2183 2331 2567 2674 2536 2247 2433 2311 2230 1890 1772 1761 2287 1128 867 672 679 809 486 240 274 1124 1523 1670 1850 1272 1099 936 571
768 1561 2317 2301 2007 1541 1203 1193 1207 1101 857 604 652 792 897 900 1265 1488 1469 1251 1496 1459 1420 1015 712 548 876 843 542 721 700 866 604 515 586 758 907 1164 1248 1329 865 901 980
755 1122 1261 1136 1098 1266 943 843 667 467 306 140 104 81 24 115 567 514 244 210 219 139 68 128 82 267 555 392 519 467 504 1093 1073 745 774 696 775 380 450 636 1108 918 550
368 430 644 844 952 1008 874 784 473 280 235 228 221 82 36 82 198 230 155 178 163 84 53 43 0 14 93 285 507 674 924 1264 1253 1217 892 529 858 604 515 518 774 685 834
252 214 347 727 625 784 941 795 472 331 240 188 205 103 53 50 29 78 100 179 353 228 194 91 17 9 0 0 0 181 572 851 1179 966 735 595 1055 511 150 455 778 1751 653
75 33 16 101 635 609 729 778 614 446 362 265 235 155 197 43 6 83 198 401 354 200 17 0 0 0 0 0 0 17 51 616 984 1023 742 1289 1744 1257 294 1047 1411 1049 1134
0 0 0 0 5 376 629 590 664 749 1172 813 501 423 485 332 3 6 0 117 12 0 0 0 0 0 0 0 0 0 2 149 598 1036 1465 1544 749 1138 1124 1124 1327 1208 1372
0 0 0 1 5 4 300 650 1255 1132 1621 1451 1406 967 910 485 0 0 0 0 0 0 0 0 0 0 0 4 15 24 7 299 954 862 587 1596 1430 1791 1273 876 1640 1461 785
0 0 0 0 1 3 101 430 728 1173 1543 1684 1216 1119 1030 389 0 0 0 0 0 0 0 0 0 0 0 0 278 230 26 226 677 1023 695 462 813 565 660 810 1337 1041 436
33 28 2 1 0 0 0 477 743 923 1122 1071 926 773 294 383 0 0 0 0 0 0 0 0 0 0 0 0 274 395 116 162 859 1058 604 489 510 249 352 1236 1136 475 530
0 28 50 27 7 21 99 90 509 557 721 1020 696 568 332 160 108 0 0 0 0 0 0 0 0 0 0 0 58 230 212 418 1113 972 1170 1157 434 143 437 545 1418 733 747
0 0 0 59 27 0 12 6 9 365 512 766 381 295 117 109 0 0 0 0 0 0 0 0 0 0 0 77 69 0 19 560 1286 1624 1317 691 288 258 443 783 766 947 1143
0 0 0 1 48 33 42 1 7 134 0 1 9 41 18 2 14 0 0 0 0 0 0 0 0 0 0 8 5 9 2 598 1422 1444 1082 807 631 513 849 560 827 857 643
0 0 0 0 0 79 29 0 0 3 1 0 4 8 0 0 0 0 0 0 0 0 0 0 0 0 0 0 0 20 9 843 1326 1596 1400 869 671 589 727 296 805 893 882
0 0 0 0 0 0 38 40 0 15 0 0 6 1 34 10 2 0 1 0 0 0 0 0 0 6 127 123 199 251 490 1082 1093 1340 1110 692 669 602 475 628 738 633 487
0 0 0 0 0 0 0 37 0 0 0 0 0 0 0 0 0 0 0 0 0 0 0 0 18 128 100 31 186 237 561 665 928 1015 878 645 644 441 403 602 735 850 570
0 0 0 0 0 0 0 0 0 0 0 0 0 0 0 0 0 0 0 0 0 0 0 0 19 83 66 58 103 228 372 528 767 851 836 862 601 290 343 578 449 413 423
0 0 0 0 0 0 0 0 0 63 19 15 0 0 0 0 0 0 0 0 0 0 2 12 33 226 205 178 151 316 257 320 674 849 1037 899 561 539 424 436 404 308 422
1 1 0 0 0 0 0 0 0 0 45 23 17 0 0 0 0 0 0 0 1 1 1 74 220 219 169 297 384 443 314 524 680 682 895 771 510 660 462 419 296 102 165
0 0 0 0 0 0 0 0 0 0 0 7 24 14 15 0 0 0 0 0 12 15 59 250 165 186 144 245 430 499 574 551 603 871 1001 730 698 631 495 314 115 290 226
0 0 0 0 0 0 0 0 0 0 0 2 39 33 10 13 7 12 17 11 17 28 27 164 232 171 139 243 262 489 702 581 860 814 797 720 492 103 67 232 53 105 118
0 0 0 0 0 0 0 0 4 49 52 46 44 18 11 48 41 34 30 29 19 16 37 41 38 67 171 211 296 650 385 313 586 729 906 590 232 46 104 87 166 296 165
0 0 0 0 0 0 0 0 0 38 30 26 19 19 16 7 13 25 45 51 47 34 13 10 20 156 133 240 527 899 705 565 362 698 594 124 170 201 209 213 462 383 120
1 1 0 0 0 0 11 51 10 7 18 28 45 21 15 94 60 25 48 83 22 8 11 67 146 82 162 187 709 865 1085 1014 993 811 447 589 439 189 167 268 192 108 25
10 3 3 2 39 17 6 12 3 15 8 24 69 134 171 155 173 58 36 40 201 253 175 60 113 126 242 427 597 434 267 293 460 247 328 189 168 203 188 127 0 1 3
0 20 11 8 10 20 30 22 30 9 21 30 31 2 15 15 41 42 9 46 28 67 141 160 219 262 336 457 245 177 147 137 93 70 205 226 176 91 21 1 2 7 16